Wednesday, September 20, 2017, 9:27 PM EDT
Back to Local

KGSB, Seymour-johnson Air Force Base

Location: Goldsboro, NC, United States Lat: 35.333
Local Time: 9:27 PM EDT ( 1:27 GMT) Lon: -77.967
Time Zone: US/Eastern Elev: 108 ft

Show me the last for .
Show Coded

Time T Td Feel RH Dir Speed Gust Alt SLP Vis Weather Sky Remarks
2017-09-20 20:58 71 71 76 100 - Calm - 29.96 29.97 10 CLR None
2017-09-20 19:58 73 72 77 98 - Calm - 29.95 29.96 10 CLR 6-hr Precip Total (8pm): 0.15"
6-hr Min Temp (8pm): 72.3°F
6-hr Max Temp (8pm): 90.0°F
2017-09-20 18:58 75 73 79 93 - Calm - 29.93 29.94 10 CLR None
2017-09-20 17:58 78 74 83 87 130° 3 - 29.93 29.94 10 CLR Peak wind: 33 mph (29 kts) from 340° at 04 min
1-hr Precip Total: 0.15"
2017-09-20 17:37 73 73 78 100 60° 9 - 29.94 29.95 10 FEW015 None
2017-09-20 17:29 73 70 77 88 50° 12 - 29.93 29.94 10 -RA FEW015 SCT070 None
2017-09-20 17:26 73 68 77 83 50° 13 - 29.93 29.94 7 -RA FEW015 SCT055 SCT070 None
2017-09-20 17:19 75 66 78 73 30° 17 28 29.94 29.95 7 +TSRA FEW015 BKN055 BKN070 Wind Shift: 05 min
2017-09-20 17:17 75 66 78 73 20° 20 31 29.95 29.96 7 +TSRA FEW010 BKN055 BKN070 None
2017-09-20 17:11 77 66 80 69 360° 22 33 29.94 29.95 10 -TSRA BKN055 BKN070 None
2017-09-20 17:07 79 66 81 65 350° 22 33 29.94 29.95 10 -RA VCTS BKN050 None
2017-09-20 16:58 84 70 89 61 320° 22 33 29.94 29.95 10 VCTS BKN055 Peak wind: 33 mph (29 kts) from 340° at 54 min
2017-09-20 16:55 84 70 89 62 330° 25 33 29.93 29.93 10 VCTS BKN055 Wind Shift: 53 min
2017-09-20 15:58 89 69 95 52 250° 5 - 29.92 29.93 10 CLR None
2017-09-20 14:58 89 69 95 52 260° 7 - 29.94 29.95 10 CLR None
2017-09-20 13:58 88 70 93 56 270° 10 - 29.95 29.96 10 CLR 6-hr Min Temp (2pm): 67.1°F
6-hr Max Temp (2pm): 87.8°F
2017-09-20 12:58 86 71 93 61 280° 10 - 29.98 29.98 10 CLR None
2017-09-20 11:58 84 71 90 65 270° 8 - 29.99 30.00 10 CLR None
2017-09-20 10:58 82 73 87 73 260° 8 - 30.01 30.01 10 CLR None
2017-09-20 09:58 78 73 83 83 260° 7 - 30.01 30.02 10 CLR None
2017-09-20 08:58 71 71 76 100 250° 3 - 30.00 30.01 10 CLR None
2017-09-20 07:58 67 67 - 100 - Calm - 29.99 30.00 10 CLR 6-hr Min Temp (8am): 64.6°F
6-hr Max Temp (8am): 68.2°F
2017-09-20 07:16 64 64 - 100 - Calm - 29.98 29.98 10 CLR None
2017-09-20 06:58 65 65 - 100 - Calm - 29.97 29.98 9 CLR None
2017-09-20 06:55 64 64 - 100 - Calm - 29.97 29.98 9 CLR None
2017-09-20 06:34 64 64 - 100 - Calm - 29.97 29.98 10 CLR None
2017-09-20 06:25 64 64 - 100 - Calm - 29.97 29.98 6 BR CLR None
2017-09-20 06:22 64 64 - 100 - Calm - 29.96 29.97 4 BR CLR None
2017-09-20 06:19 64 64 - 100 - Calm - 29.96 29.97 1 BR CLR Variable visibility
2017-09-20 06:13 64 64 - 100 - Calm - 29.96 29.97 1 BR CLR Variable visibility
2017-09-20 06:10 64 64 - 100 - Calm - 29.96 29.97 1 BR CLR Variable visibility
2017-09-20 06:07 64 64 - 100 - Calm - 29.96 29.97 5 BR CLR None
2017-09-20 06:01 64 64 - 100 - Calm - 29.96 29.97 6 BR CLR None
2017-09-20 05:58 65 65 - 100 - Calm - 29.95 29.96 3 BR CLR None
2017-09-20 05:52 66 66 - 100 - Calm - 29.95 29.96 2 BR CLR Variable visibility
2017-09-20 05:49 66 66 - 100 - Calm - 29.95 29.96 2 BR CLR Variable visibility
2017-09-20 05:43 66 66 - 100 - Calm - 29.95 29.96 9 CLR None
2017-09-20 05:25 66 66 - 100 - Calm - 29.95 29.96 10 CLR None
2017-09-20 05:19 66 66 - 100 - Calm - 29.94 29.95 5 BR CLR None
2017-09-20 05:13 66 66 - 100 - Calm - 29.94 29.95 4 BR CLR None
2017-09-20 05:07 66 66 - 100 - Calm - 29.94 29.95 7 CLR None
2017-09-20 04:58 67 67 - 100 - Calm - 29.94 29.95 10 CLR None
2017-09-20 04:46 66 66 - 100 - Calm - 29.94 29.95 10 CLR None
2017-09-20 04:31 66 66 - 100 - Calm - 29.94 29.95 8 CLR None
2017-09-20 03:58 66 66 - 100 - Calm - 29.93 29.93 10 CLR None
2017-09-20 03:37 66 66 - 100 - Calm - 29.93 29.93 10 CLR None
2017-09-20 03:34 66 66 - 100 - Calm - 29.93 29.93 7 CLR None
2017-09-20 03:31 66 66 - 100 - Calm - 29.93 29.93 4 BR CLR None
2017-09-20 03:28 66 66 - 100 - Calm - 29.93 29.93 1 BR CLR Variable visibility
2017-09-20 03:25 66 66 - 100 - Calm - 29.93 29.93 1 BR CLR Variable visibility
2017-09-20 03:22 66 66 - 100 - Calm - 29.93 29.93 0 BR CLR Variable visibility
2017-09-20 03:19 68 68 - 100 - Calm - 29.93 29.93 0 BR CLR Variable visibility
2017-09-20 03:16 68 68 - 100 - Calm - 29.93 29.93 1 BR CLR Variable visibility
2017-09-20 03:13 68 68 - 100 - Calm - 29.93 29.93 3 BR CLR None
2017-09-20 02:58 67 67 - 100 - Calm - 29.93 29.93 8 CLR None
2017-09-20 02:49 68 68 - 100 - Calm - 29.93 29.93 9 CLR None
2017-09-20 02:31 68 68 - 100 - Calm - 29.94 29.95 9 CLR None
2017-09-20 02:22 68 68 - 100 - Calm - 29.94 29.95 9 CLR None
2017-09-20 01:58 68 68 - 100 - Calm - 29.93 29.93 10 CLR 6-hr Min Temp (2am): 67.1°F
6-hr Max Temp (2am): 75.7°F
2017-09-20 01:49 68 68 - 100 - Calm - 29.94 29.95 10 CLR None
2017-09-20 01:40 68 68 - 100 - Calm - 29.94 29.95 5 BR CLR None
2017-09-20 01:37 68 68 - 100 - Calm - 29.93 29.93 4 BR CLR None
2017-09-20 01:34 68 68 - 100 - Calm - 29.94 29.95 2 BR CLR Variable visibility
2017-09-20 01:28 68 68 - 100 - Calm - 29.93 29.93 2 BR CLR Variable visibility
2017-09-20 01:25 68 68 - 100 - Calm - 29.93 29.93 2 BR CLR Variable visibility
2017-09-20 01:22 68 68 - 100 - Calm - 29.93 29.93 4 BR CLR None
2017-09-20 00:58 68 68 - 100 - Calm - 29.93 29.93 7 CLR 24-hr Min Temp (1am): 67.5°F
24-hr Max Temp (1am): 85.1°F
2017-09-20 00:46 68 68 - 100 - Calm - 29.93 29.93 9 CLR None
2017-09-20 00:34 68 68 - 100 - Calm - 29.93 29.93 10 CLR None
2017-09-20 00:28 70 70 - 100 - Calm - 29.93 29.93 9 CLR None
2017-09-19 23:58 70 70 76 100 - Calm - 29.94 29.95 10 CLR None
2017-09-19 23:40 70 70 - 100 - Calm - 29.94 29.95 9 CLR None
2017-09-19 23:37 70 70 - 100 - Calm - 29.94 29.95 4 BR CLR None
2017-09-19 23:31 70 70 - 100 - Calm - 29.94 29.95 2 BR CLR Variable visibility
2017-09-19 23:28 70 70 - 100 - Calm - 29.93 29.93 2 BR CLR Variable visibility
2017-09-19 22:58 69 69 - 100 - Calm - 29.93 29.94 10 CLR None
2017-09-19 21:58 71 71 76 99 - Calm - 29.92 29.93 10 CLR None

Support USWX by starting your Amazon purchase here.